[[{"header":{"parameterUnit":"m.s-1","parameterCategory":2,"la1":30.2991,"la2":30.254,"lo1":-89.0895,"lo2":-89.0444,"dy":0.0017,"dx":0.0017,"nx":28,"ny":28,"refTime":"2024-06-20T21:00:00:Z","depth":"0","parameterNumber":2,"parameterNumberName":"U-component_of_CURRENTS"},"data":[0,0,0,0,0,0,0,0,0,0,0,0,0,0,0,0,0,0,0,0,0,0,0,0,0,0,0,0,0,0,0,0,0,0,0,0,0,0,0,0,0,0,0,0,0,0,0,0,0,0,0,0,0,0,0,0,0,0,0.268,0.2682,0,0.2851,0.2853,0.2854,0.2875,0.2874,0.2872,0.2871,0.2979,0.2983,0.2987,0,0,0,0,0,0,0,0,0,0,0,0,0,0.2447,0.245,0.268,0.2682,0.2684,0.2851,0.2853,0.2855,0.2876,0.2874,0.2872,0.287,0.2978,0.2983,0.2988,0,0,0,0,0,0,0,0,0,0,0,0,0,0.2574,0.2451,0.268,0.2716,0.2721,0.285,0.2853,0.2856,0.2876,0.2874,0.2871,0.2869,0.2976,0.2982,0.2989,0.3075,0,0,0.3008,0.3011,0,0,0,0,0,0,0,0,0.2567,0.2582,0.2708,0.2714,0.2719,0.2841,0.281,0.2926,0.2877,0.2816,0.2871,0.2868,0.293,0.294,0.2976,0.308,0.3085,0.3009,0.3013,0.3016,0.3017,0,0,0,0,0,0,0,0.2558,0.2576,0.2746,0.2711,0.2718,0.2749,0.2764,0.2833,0.2881,0.2821,0.2823,0.2845,0.2932,0.297,0.2978,0.3086,0.3009,0.3015,0.3019,0.3021,0.3233,0.3235,0,0,0,0,0,0,0.2539,0.2568,0.2741,0.2751,0.2637,0.2755,0.2772,0.2803,0.2882,0.2893,0.2847,0.2845,0.296,0.2971,0.2982,0.3092,0.3016,0.3022,0.3025,0.3232,0.3234,0.3236,0,0,0,0,0,0,0.2534,0.2553,0.2734,0.2663,0.2689,0.2761,0.2797,0.2808,0.2851,0.2903,0.2911,0.2878,0.2958,0.2973,0.305,0.3096,0.3025,0.303,0.323,0.3232,0.3235,0.331,0,0,0,0,0,0,0.2526,0.2551,0.2574,0.2663,0.2692,0.282,0.2799,0.2813,0.2868,0.2868,0.2934,0.2941,0.2958,0.304,0.3056,0.3103,0.3036,0.3227,0.3231,0.3234,0.3305,0.3314,0.3323,0,0,0,0,0,0.2518,0.2571,0.2575,0.2596,0.272,0.2822,0.2841,0.2883,0.2872,0.2909,0.2943,0.2939,0.3071,0.3048,0.3066,0.3116,0.3226,0.323,0.3234,0.3301,0.3313,0.3322,0,0,0,0,0,0,0.2488,0.2581,0.2586,0.2664,0.2735,0.2826,0.2874,0.2896,0.2958,0.2951,0.2981,0.2993,0.3075,0.3086,0.306,0.3182,0.3142,0.3149,0.3186,0.3198,0.3206,0.3223,0.3041,0,0,0,0,0,0.249,0.2553,0.2633,0.2699,0.2732,0.2801,0.2849,0.2877,0.2941,0.2965,0.3003,0.3046,0.3111,0.3143,0.3194,0.3278,0.3308,0.3313,0.3322,0.333,0.3354,0.3455,0.3476,0.3249,0.3249,0.3249,0,0,0.2497,0.2558,0.2593,0.2696,0.2752,0.2826,0.2825,0.2905,0.2964,0.297,0.3053,0.3087,0.314,0.3225,0.3261,0.3238,0.3405,0.3335,0.3341,0.3362,0.3462,0.3484,0.3504,0.3251,0.3251,0.325,0,0,0.2554,0.2595,0.2663,0.2721,0.281,0.2858,0.288,0.2966,0.2999,0.3092,0.3102,0.3168,0.3258,0.3308,0.3345,0.3439,0.3452,0.3439,0.3505,0.3603,0.3623,0.3641,0.3688,0.371,0.3441,0.3442,0.3442,0,0.256,0.2652,0.27,0.2775,0.2829,0.287,0.2947,0.3004,0.3099,0.315,0.312,0.3282,0.3307,0.344,0.3456,0.3465,0.3502,0.3462,0.3617,0.3636,0.3653,0.3697,0.3721,0.3446,0.3445,0.3445,0.3444,0,0.2663,0.2729,0.2777,0.2878,0.294,0.3018,0.3086,0.3148,0.3182,0.3241,0.3364,0.3409,0.3506,0.3515,0.3518,0.3654,0.3633,0.362,0.3593,0.3681,0.3721,0.3744,0.3451,0.345,0.3449,0.3448,0,0,0.2711,0.2826,0.2843,0.2886,0.2997,0.3058,0.3161,0.3282,0.3357,0.3431,0.3547,0.364,0.3656,0.3698,0.3708,0.3777,0.3907,0.3748,0.3751,0.3799,0.4101,0.4083,0.4105,0.3927,0.3932,0.3936,0.4072,0,0.2783,0.2899,0.2958,0.3071,0.3131,0.3198,0.329,0.3391,0.3472,0.3586,0.366,0.3762,0.3729,0.377,0.3847,0.3903,0.3975,0.387,0.4005,0.4008,0.3987,0.4135,0.4058,0.4174,0.4094,0.4098,0.41,0,0.287,0.2935,0.3034,0.3147,0.3183,0.3252,0.3396,0.349,0.3653,0.372,0.3845,0.3894,0.4029,0.3964,0.414,0.4077,0.4102,0.4125,0.4131,0.4112,0.4036,0.4078,0.4219,0.4129,0.4135,0.4133,0.413,0,0.2852,0.2995,0.3062,0.3101,0.3232,0.3294,0.3377,0.3527,0.3615,0.3805,0.3894,0.4053,0.4137,0.4226,0.428,0.4226,0.4451,0.4382,0.4391,0.4387,0.4349,0.4335,0.4429,0.4514,0.4514,0.4514,0.4513,0,0.29,0.2961,0.3048,0.3082,0.3173,0.3276,0.3394,0.3507,0.3674,0.3805,0.3949,0.4076,0.421,0.4342,0.4362,0.4474,0.4533,0.4452,0.4454,0.4367,0.4354,0.4291,0.4216,0.4519,0.4518,0.4517,0.4516,0,0.2869,0.2929,0.3001,0.3118,0.3155,0.3212,0.3366,0.3463,0.3636,0.3815,0.3882,0.4126,0.4334,0.4449,0.4605,0.4585,0.4565,0.4682,0.455,0.4535,0.4429,0.4359,0.426,0.4136,0.4725,0.4726,0.4727,0,0.2872,0.2904,0.2982,0.3011,0.306,0.3157,0.3233,0.3411,0.3528,0.3839,0.3933,0.4196,0.4389,0.4636,0.4698,0.4798,0.462,0.4718,0.4606,0.4468,0.4392,0.4148,0.4031,0.4569,0.4568,0.4567,0.4567,0,0.2892,0.2895,0.2945,0.2991,0.305,0.3113,0.3244,0.3316,0.3562,0.3737,0.3994,0.4171,0.4471,0.4591,0.4741,0.4767,0.4517,0.4708,0.4629,0.4355,0.4036,0.3901,0.4391,0.4563,0.4563,0.4563,0.4564,0.4564,0.2926,0.2931,0.2986,0.3018,0.3054,0.3097,0.3133,0.3294,0.3469,0.3715,0.3933,0.415,0.4422,0.4663,0.4651,0.4609,0.4499,0.4502,0.4451,0.4231,0.405,0.4513,0.4644,0.4645,0.4646,0.4646,0.4647,0,0.3017,0.3014,0.3033,0.3059,0.3043,0.3079,0.317,0.3201,0.3356,0.3597,0.3807,0.4094,0.4262,0.4402,0.4514,0.4387,0.4132,0.4275,0.3937,0.3851,0.4364,0.43,0.4286,0.4286,0.4286,0.4286,0.4286,0.4286,0.3095,0.3122,0.309,0.3066,0.3047,0.3027,0.3044,0.3086,0.3211,0.3398,0.3544,0.3727,0.4079,0.4329,0.4293,0.4193,0.3854,0.3711,0.3622,0.4035,0.4051,0.4066,0.3991,0.3912,0.3912,0.2983,0.2976,0.2971]},{"header":{"parameterUnit":"m.s-1","parameterCategory":2,"la1":30.2991,"la2":30.254,"lo1":-89.0895,"lo2":-89.0444,"dy":0.0017,"dx":0.0017,"nx":28,"ny":28,"refTime":"2024-06-20T21:00:00:Z","depth":"0","parameterNumber":3,"parameterNumberName":"V-component_of_CURRENTS"},"data":[0,0,0,0,0,0,0,0,0,0,0,0,0,0,0,0,0,0,0,0,0,0,0,0,0,0,0,0,0,0,0,0,0,0,0,0,0,0,0,0,0,0,0,0,0,0,0,0,0,0,0,0,0,0,0,0,0,0,-0.0312,-0.0312,0,-0.0301,-0.0301,-0.0301,-0.0361,-0.0363,-0.0365,-0.0366,-0.0339,-0.0336,-0.0334,0,0,0,0,0,0,0,0,0,0,0,0,0,-0.0428,-0.0425,-0.0312,-0.0312,-0.0312,-0.0301,-0.0301,-0.0301,-0.0361,-0.0363,-0.0365,-0.0367,-0.0339,-0.0337,-0.0334,0,0,0,0,0,0,0,0,0,0,0,0,0,-0.0392,-0.0424,-0.0312,-0.0341,-0.0344,-0.0302,-0.0301,-0.0301,-0.036,-0.0363,-0.0366,-0.0368,-0.034,-0.0337,-0.0333,-0.0256,0,0,-0.0322,-0.0321,0,0,0,0,0,0,0,0,-0.0394,-0.0387,-0.0337,-0.0339,-0.0342,-0.0336,-0.0332,-0.0285,-0.0359,-0.0353,-0.0366,-0.0369,-0.0335,-0.0332,-0.0323,-0.0255,-0.0254,-0.0322,-0.032,-0.0318,-0.0317,0,0,0,0,0,0,0,-0.0396,-0.0389,-0.0307,-0.0337,-0.034,-0.037,-0.0368,-0.0324,-0.0327,-0.0354,-0.0358,-0.0358,-0.0337,-0.0326,-0.0322,-0.0253,-0.0322,-0.0319,-0.0316,-0.0315,-0.0162,-0.016,0,0,0,0,0,0,-0.0394,-0.039,-0.0307,-0.0307,-0.0377,-0.0366,-0.0363,-0.0334,-0.0328,-0.0331,-0.0356,-0.0361,-0.0331,-0.0326,-0.0322,-0.0241,-0.0318,-0.0315,-0.0313,-0.0164,-0.0162,-0.016,0,0,0,0,0,0,-0.0396,-0.0385,-0.0308,-0.0352,-0.0344,-0.0361,-0.0329,-0.0333,-0.0322,-0.033,-0.0333,-0.0341,-0.0333,-0.0327,-0.0276,-0.024,-0.0313,-0.031,-0.0166,-0.0163,-0.0161,-0.0072,0,0,0,0,0,0,-0.0398,-0.0385,-0.0349,-0.035,-0.0341,-0.0255,-0.0326,-0.0331,-0.0319,-0.0325,-0.0318,-0.0319,-0.0334,-0.0281,-0.0272,-0.0237,-0.0307,-0.0168,-0.0165,-0.0161,-0.0078,-0.0067,-0.0058,0,0,0,0,0,-0.0402,-0.0324,-0.0347,-0.0337,-0.0295,-0.0252,-0.0249,-0.0272,-0.0315,-0.0279,-0.0293,-0.0319,-0.0254,-0.0275,-0.0266,-0.0228,-0.017,-0.0166,-0.0162,-0.0082,-0.0069,-0.0058,0,0,0,0,0,0,-0.0321,-0.0323,-0.0348,-0.0266,-0.0258,-0.0263,-0.0225,-0.0256,-0.0237,-0.0247,-0.0277,-0.0275,-0.0226,-0.0229,-0.0252,-0.0176,-0.0222,-0.0215,-0.0165,-0.0152,-0.0142,-0.0136,-0.0304,0,0,0,0,0,-0.0295,-0.0254,-0.0261,-0.0191,-0.0187,-0.0209,-0.0194,-0.0212,-0.0206,-0.0203,-0.0209,-0.021,-0.0196,-0.0177,-0.0161,-0.0095,-0.0136,-0.0071,-0.0061,-0.0053,-0.0041,-0.0081,-0.0075,-0.0146,-0.0146,-0.0146,0,0,-0.0242,-0.0238,-0.0211,-0.0176,-0.0174,-0.0133,-0.0204,-0.0164,-0.0135,-0.0196,-0.0145,-0.0166,-0.0171,-0.0119,-0.0097,-0.0117,-0.0052,-0.0047,-0.004,-0.0033,-0.0076,-0.007,-0.0064,-0.0143,-0.0143,-0.0144,0,0,-0.0124,-0.0115,-0.0056,-0.0048,-0.0041,-0.0051,-0.0039,-0.0042,-0.0049,0.0,-0.0058,-0.0058,-0.001,-0.0028,-0.0027,0.0057,-0.0002,0.0062,0.0129,0.009,0.0095,0.0099,0.0059,0.0058,0.0072,0.0072,0.0072,0,-0.0065,-0.0,-0.0025,0.0024,0.0041,-0.0012,0.0049,0.0053,0.0063,0.0066,0.0034,0.0045,0.0031,0.0065,0.0078,0.008,0.0045,0.0082,0.0101,0.0104,0.0107,0.0064,0.0063,0.0077,0.0076,0.0076,0.0075,0,0.0074,0.0119,0.0163,0.0191,0.0219,0.0268,0.025,0.0267,0.0239,0.0224,0.0243,0.0207,0.0203,0.0196,0.0166,0.0181,0.0146,0.0112,0.0066,0.0119,0.0071,0.0068,0.0084,0.0082,0.0081,0.0079,0,0,0.0202,0.0246,0.0254,0.0279,0.0299,0.0337,0.0386,0.0409,0.0432,0.0414,0.0441,0.0423,0.0362,0.0357,0.0301,0.0266,0.0241,0.0203,0.0199,0.0157,0.0153,0.0138,0.0132,0.0204,0.0204,0.0204,0.0113,0,0.0303,0.041,0.0408,0.0509,0.0557,0.0522,0.0576,0.0586,0.0573,0.0591,0.0519,0.0535,0.0437,0.0431,0.0376,0.0286,0.0236,0.0269,0.0115,0.0111,0.0085,0.0129,0.015,0.0072,0.0109,0.0109,0.0108,0,0.0419,0.0467,0.0577,0.0635,0.0655,0.0712,0.0755,0.0797,0.0792,0.0781,0.0749,0.0689,0.0641,0.0546,0.0398,0.0423,0.0295,0.0208,0.0201,0.0155,0.009,0.0026,0.0063,-0.0164,0.0102,0.0103,0.0103,0,0.0488,0.0581,0.0664,0.0685,0.0752,0.0795,0.0835,0.0855,0.0905,0.0899,0.0935,0.0834,0.0817,0.0646,0.0458,0.0426,0.0291,0.0222,0.0082,0.0079,0.0052,0.0047,-0.0153,0.0103,0.0103,0.0103,0.0103,0,0.0579,0.0645,0.0701,0.0747,0.0854,0.0877,0.0987,0.0998,0.1051,0.1151,0.1036,0.1096,0.0841,0.0732,0.0518,0.031,0.033,0.0105,0.0061,0.0085,0.0084,-0.0152,-0.0265,0.01,0.01,0.0101,0.0102,0,0.0646,0.0674,0.0777,0.086,0.0889,0.0972,0.1097,0.1177,0.1212,0.134,0.1354,0.1294,0.1171,0.0903,0.0645,0.0419,0.0077,0.0112,0.0159,0.0122,-0.0231,-0.0338,-0.056,-0.0669,-0.0061,-0.0062,-0.0062,0,0.0703,0.076,0.0858,0.0927,0.0972,0.109,0.1179,0.1245,0.1355,0.1492,0.1577,0.1499,0.1503,0.111,0.0689,0.0309,0.0077,0.0049,-0.0016,-0.0236,-0.0389,-0.047,-0.0551,-0.0024,-0.0024,-0.0025,-0.0025,0,0.0826,0.0846,0.0923,0.1059,0.1163,0.1285,0.1431,0.1546,0.1668,0.18,0.1973,0.1996,0.163,0.1282,0.0735,0.0444,-0.0095,0.0032,-0.021,-0.0379,-0.0465,-0.0594,0.0012,-0.0027,-0.0027,-0.0027,-0.0026,-0.0026,0.0937,0.1009,0.1115,0.1239,0.1348,0.152,0.1662,0.1847,0.2073,0.2327,0.2288,0.2371,0.1809,0.1088,0.0668,-0.0117,-0.012,-0.0357,-0.0469,-0.0533,-0.0634,-0.0027,-0.0106,-0.0106,-0.0106,-0.0106,-0.0106,0,0.1129,0.1194,0.1306,0.1467,0.1597,0.1625,0.1863,0.2037,0.2351,0.2547,0.2701,0.2449,0.1791,0.1054,0.0022,-0.0513,-0.0724,-0.0814,-0.0942,-0.1005,-0.048,-0.0475,-0.0618,-0.0618,-0.0617,-0.0617,-0.0617,-0.0617,0.1261,0.1403,0.1435,0.1683,0.1774,0.1985,0.2133,0.2397,0.2587,0.2863,0.2893,0.2857,0.2276,0.0516,-0.0711,-0.1013,-0.1357,-0.143,-0.1621,-0.1285,-0.1251,-0.122,-0.1244,-0.1547,-0.1548,-0.2089,-0.2095,-0.2099]}],[{"header":{"parameterUnit":"m.s-1","parameterCategory":2,"la1":30.2991,"la2":30.254,"lo1":-89.0895,"lo2":-89.0444,"dy":0.0017,"dx":0.0017,"nx":28,"ny":28,"refTime":"2024-06-20T21:00:00:Z","depth":"2","parameterNumber":2,"parameterNumberName":"U-component_of_CURRENTS"},"data":[0,0,0,0,0,0,0,0,0,0,0,0,0,0,0,0,0,0,0,0,0,0,0,0,0,0,0,0,0,0,0,0,0,0,0,0,0,0,0,0,0,0,0,0,0,0,0,0,0,0,0,0,0,0,0,0,0,0,0.2645,0.2646,0,0.2719,0.272,0.272,0.2747,0.2748,0.2748,0.2748,0.2781,0.2782,0.2783,0,0,0,0,0,0,0,0,0,0,0,0,0,0.2446,0.2449,0.2645,0.2646,0.2648,0.2719,0.272,0.272,0.2747,0.2748,0.2748,0.2748,0.2781,0.2782,0.2783,0,0,0,0,0,0,0,0,0,0,0,0,0,0.2523,0.2451,0.2645,0.2674,0.2678,0.2719,0.272,0.272,0.2747,0.2748,0.2748,0.2748,0.2781,0.2782,0.2783,0.2782,0,0,0.2786,0.2786,0,0,0,0,0,0,0,0,0.2518,0.2529,0.2668,0.2672,0.2676,0.2729,0.2662,0.2741,0.2747,0.2715,0.2748,0.2748,0.2763,0.2766,0.2772,0.2783,0.2785,0.2786,0.2787,0.2787,0.2787,0,0,0,0,0,0,0,0.2513,0.2526,0.2669,0.267,0.2675,0.2656,0.2667,0.2676,0.2731,0.2718,0.2722,0.2738,0.2764,0.2771,0.2773,0.2785,0.2786,0.2787,0.2787,0.2788,0.2861,0.2863,0,0,0,0,0,0,0.2519,0.2522,0.2667,0.2672,0.2602,0.266,0.2672,0.2707,0.2732,0.2739,0.2738,0.2739,0.2769,0.2772,0.2774,0.287,0.2787,0.2788,0.2789,0.286,0.2862,0.2863,0,0,0,0,0,0,0.2515,0.2532,0.2664,0.2601,0.2617,0.2664,0.2702,0.2709,0.2738,0.2749,0.2753,0.2764,0.2769,0.2773,0.28,0.2868,0.2788,0.2789,0.2858,0.2861,0.2862,0.3,0,0,0,0,0,0,0.2509,0.253,0.2551,0.2602,0.2621,0.2704,0.2703,0.271,0.2749,0.2752,0.2772,0.2774,0.277,0.2799,0.2801,0.2868,0.279,0.2857,0.2859,0.2862,0.2994,0.3007,0.3018,0,0,0,0,0,0.2502,0.2541,0.2552,0.2569,0.2651,0.2705,0.2713,0.2742,0.275,0.2768,0.2781,0.2775,0.2817,0.2801,0.2803,0.2872,0.2855,0.2859,0.2862,0.2989,0.3004,0.3017,0,0,0,0,0,0,0.2472,0.255,0.2562,0.2625,0.2665,0.2712,0.2744,0.2755,0.278,0.279,0.2788,0.2791,0.2846,0.2825,0.2807,0.2895,0.2837,0.2841,0.2933,0.2947,0.2959,0.2923,0.2791,0,0,0,0,0,0.2474,0.2523,0.2583,0.2632,0.2663,0.2703,0.2728,0.2749,0.2782,0.2794,0.2815,0.2831,0.2857,0.2874,0.2886,0.2929,0.2921,0.2972,0.2984,0.2994,0.2964,0.3032,0.3049,0.2873,0.2873,0.2873,0,0,0.2476,0.2526,0.2552,0.2627,0.2669,0.27,0.272,0.2777,0.2798,0.2793,0.2843,0.2875,0.2874,0.2932,0.2955,0.2928,0.3045,0.2998,0.3008,0.297,0.3037,0.3055,0.307,0.2875,0.2875,0.2875,0,0,0.2489,0.2556,0.2587,0.2627,0.2694,0.2721,0.2742,0.2807,0.2839,0.2876,0.2898,0.2949,0.2981,0.3007,0.3017,0.3089,0.3105,0.3124,0.3163,0.3233,0.3249,0.3262,0.3302,0.3317,0.3133,0.3133,0.3133,0,0.2481,0.254,0.2602,0.2637,0.2679,0.2731,0.2765,0.2799,0.2859,0.2901,0.29,0.2999,0.3001,0.3083,0.3113,0.3117,0.316,0.3121,0.3252,0.3264,0.3276,0.3313,0.3328,0.314,0.3139,0.3139,0.3138,0,0.2502,0.2553,0.259,0.2648,0.269,0.2746,0.2803,0.2855,0.29,0.2937,0.3042,0.307,0.3126,0.3163,0.3153,0.3264,0.3272,0.3266,0.3223,0.3302,0.3336,0.335,0.315,0.3148,0.3146,0.3144,0,0,0.2475,0.2581,0.2591,0.2628,0.2713,0.2754,0.2813,0.2892,0.2956,0.3018,0.3104,0.3164,0.3219,0.3229,0.3277,0.3332,0.3455,0.3345,0.3346,0.3395,0.3624,0.3598,0.361,0.3515,0.3517,0.3519,0.3626,0,0.2474,0.2537,0.2593,0.2656,0.2703,0.2783,0.2845,0.2919,0.2993,0.3088,0.3153,0.3244,0.3238,0.331,0.3367,0.3438,0.3494,0.3425,0.3525,0.3526,0.3505,0.3625,0.3369,0.3441,0.3639,0.3641,0.3643,0,0.2477,0.2518,0.2581,0.2697,0.2732,0.277,0.2908,0.2974,0.3104,0.318,0.328,0.3331,0.3431,0.341,0.3551,0.3532,0.3572,0.3608,0.3614,0.3537,0.3526,0.3386,0.3457,0.3665,0.3663,0.3661,0.366,0,0.2433,0.2526,0.258,0.2613,0.2731,0.2789,0.2869,0.3004,0.3082,0.3249,0.3325,0.3448,0.3535,0.3601,0.3661,0.3638,0.3806,0.3775,0.3781,0.3778,0.3539,0.3512,0.3854,0.3854,0.3854,0.3853,0.3853,0,0.2427,0.2466,0.2567,0.2591,0.2673,0.2782,0.2895,0.3006,0.3156,0.3267,0.3381,0.3482,0.3597,0.3692,0.3715,0.3805,0.3854,0.3795,0.3816,0.3582,0.3559,0.3716,0.3698,0.3857,0.3856,0.3856,0.3855,0,0.2372,0.2438,0.2498,0.2615,0.2654,0.272,0.288,0.297,0.3142,0.3286,0.3341,0.3534,0.3695,0.3776,0.3908,0.389,0.3954,0.3964,0.3673,0.3657,0.3857,0.3845,0.3974,0.3974,0.3975,0.3975,0.3975,0,0.2363,0.2384,0.2488,0.2526,0.2577,0.2683,0.2768,0.2943,0.3034,0.3307,0.3366,0.3576,0.3702,0.3891,0.3924,0.3986,0.4011,0.376,0.364,0.3868,0.3876,0.3863,0.3851,0.3382,0.3378,0.3374,0.3371,0,0.2332,0.2367,0.2408,0.2477,0.2552,0.2625,0.2754,0.2796,0.3028,0.3159,0.3349,0.347,0.3706,0.3688,0.3807,0.3786,0.3727,0.3686,0.4028,0.34,0.3321,0.3325,0.3331,0.3336,0.334,0.3342,0.3344,0.3345,0.2308,0.2326,0.239,0.2434,0.2509,0.2561,0.2578,0.2709,0.2822,0.2989,0.3193,0.3319,0.3439,0.3499,0.3433,0.3398,0.3632,0.3463,0.347,0.3482,0.3403,0.333,0.333,0.3333,0.3336,0.3339,0.3341,0,0.2261,0.2297,0.2353,0.2391,0.2406,0.249,0.2561,0.2547,0.261,0.2833,0.2969,0.2851,0.2916,0.3018,0.2941,0.2976,0.2882,0.284,0.2689,0.2731,0.2766,0.2642,0.2372,0.2367,0.2364,0.236,0,0,0.225,0.2233,0.2244,0.2248,0.2299,0.228,0.2281,0.2285,0.2385,0.2434,0.2514,0.2795,0.2974,0.2623,0.2615,0.2482,0.2564,0.239,0.3188,0.3056,0.3084,0.3175,0.3041,0,0,0,0,0]},{"header":{"parameterUnit":"m.s-1","parameterCategory":2,"la1":30.2991,"la2":30.254,"lo1":-89.0895,"lo2":-89.0444,"dy":0.0017,"dx":0.0017,"nx":28,"ny":28,"refTime":"2024-06-20T21:00:00:Z","depth":"2","parameterNumber":3,"parameterNumberName":"V-component_of_CURRENTS"},"data":[0,0,0,0,0,0,0,0,0,0,0,0,0,0,0,0,0,0,0,0,0,0,0,0,0,0,0,0,0,0,0,0,0,0,0,0,0,0,0,0,0,0,0,0,0,0,0,0,0,0,0,0,0,0,0,0,0,0,-0.0468,-0.0469,0,-0.0493,-0.0492,-0.0492,-0.0542,-0.0544,-0.0546,-0.0548,-0.0575,-0.0574,-0.0573,0,0,0,0,0,0,0,0,0,0,0,0,0,-0.0352,-0.0354,-0.0468,-0.0469,-0.047,-0.0493,-0.0492,-0.0491,-0.0542,-0.0544,-0.0547,-0.0549,-0.0576,-0.0575,-0.0573,0,0,0,0,0,0,0,0,0,0,0,0,0,-0.0382,-0.0354,-0.0468,-0.0506,-0.0511,-0.0493,-0.0492,-0.0491,-0.0541,-0.0544,-0.0547,-0.055,-0.0576,-0.0575,-0.0573,-0.0501,0,0,-0.0568,-0.0567,0,0,0,0,0,0,0,0,-0.038,-0.0385,-0.0499,-0.0504,-0.0509,-0.0527,-0.0462,-0.0499,-0.054,-0.0518,-0.0548,-0.0552,-0.0565,-0.0564,-0.0546,-0.0503,-0.0504,-0.0567,-0.0566,-0.0566,-0.0565,0,0,0,0,0,0,0,-0.0378,-0.0383,-0.0466,-0.0501,-0.0507,-0.0485,-0.0493,-0.0468,-0.0515,-0.052,-0.0527,-0.0546,-0.0566,-0.0547,-0.0547,-0.0504,-0.0568,-0.0566,-0.0565,-0.0564,-0.0495,-0.0494,0,0,0,0,0,0,-0.04,-0.0382,-0.0466,-0.0468,-0.0463,-0.0486,-0.0494,-0.0509,-0.0516,-0.0523,-0.0544,-0.0549,-0.0549,-0.0549,-0.0549,-0.0509,-0.0566,-0.0564,-0.0563,-0.0496,-0.0495,-0.0494,0,0,0,0,0,0,-0.0397,-0.0407,-0.0465,-0.0435,-0.0442,-0.0487,-0.0502,-0.0508,-0.0514,-0.0536,-0.0541,-0.0548,-0.0551,-0.0551,-0.0541,-0.051,-0.0563,-0.0562,-0.0497,-0.0496,-0.0494,-0.0402,0,0,0,0,0,0,-0.0394,-0.0405,-0.0411,-0.0436,-0.0445,-0.0446,-0.0501,-0.0507,-0.0525,-0.0532,-0.054,-0.0545,-0.0554,-0.0543,-0.0539,-0.0508,-0.056,-0.0498,-0.0496,-0.0495,-0.0407,-0.0398,-0.0391,0,0,0,0,0,-0.0389,-0.0381,-0.041,-0.0421,-0.0455,-0.0445,-0.0444,-0.0479,-0.0523,-0.0499,-0.0525,-0.0546,-0.0532,-0.054,-0.0536,-0.0504,-0.0498,-0.0497,-0.0495,-0.041,-0.04,-0.0391,0,0,0,0,0,0,-0.0336,-0.0388,-0.042,-0.0431,-0.0439,-0.0458,-0.0448,-0.0479,-0.0476,-0.049,-0.0522,-0.0525,-0.0508,-0.0519,-0.0528,-0.0484,-0.0523,-0.052,-0.046,-0.045,-0.0443,-0.0426,-0.0559,0,0,0,0,0,-0.0329,-0.0333,-0.0377,-0.0381,-0.0389,-0.042,-0.0423,-0.0442,-0.0455,-0.0458,-0.0465,-0.0481,-0.0487,-0.0484,-0.0479,-0.0439,-0.0473,-0.0423,-0.0416,-0.0409,-0.0395,-0.0425,-0.0419,-0.0488,-0.0488,-0.0488,0,0,-0.0312,-0.034,-0.0345,-0.0369,-0.0381,-0.0359,-0.0425,-0.0419,-0.0399,-0.0458,-0.042,-0.0447,-0.0474,-0.044,-0.0433,-0.0449,-0.0408,-0.0407,-0.04,-0.039,-0.0423,-0.0416,-0.041,-0.0487,-0.0487,-0.0487,0,0,-0.0248,-0.0303,-0.0271,-0.0275,-0.0295,-0.0312,-0.0316,-0.0327,-0.0334,-0.0305,-0.0357,-0.0373,-0.0352,-0.0371,-0.0383,-0.0329,-0.037,-0.0329,-0.0265,-0.0294,-0.0289,-0.0284,-0.0321,-0.0321,-0.032,-0.032,-0.032,0,-0.0224,-0.0207,-0.0255,-0.0221,-0.0225,-0.0293,-0.0251,-0.0253,-0.0254,-0.0253,-0.0284,-0.0291,-0.0321,-0.031,-0.0299,-0.031,-0.0335,-0.0295,-0.0283,-0.028,-0.0276,-0.0316,-0.0316,-0.0315,-0.0316,-0.0316,-0.0317,0,-0.0123,-0.0121,-0.0103,-0.0093,-0.0088,-0.0069,-0.0098,-0.0087,-0.0121,-0.0131,-0.0126,-0.0165,-0.0176,-0.0191,-0.0227,-0.0215,-0.0243,-0.0273,-0.0303,-0.0264,-0.0308,-0.031,-0.0309,-0.031,-0.0312,-0.0313,0,0,-0.0047,-0.0036,-0.0029,-0.0017,-0.0028,-0.0014,0.0012,0.0016,0.0032,0.0016,0.0036,0.0002,-0.0038,-0.0056,-0.0106,-0.0134,-0.0148,-0.0183,-0.0187,-0.0213,-0.0212,-0.0234,-0.0239,-0.0171,-0.0171,-0.0171,-0.0253,0,0.0042,0.012,0.0106,0.0168,0.019,0.0139,0.0175,0.0169,0.0149,0.0162,0.0087,0.0094,0.0018,0.0014,-0.0027,-0.0114,-0.0148,-0.0123,-0.0252,-0.0256,-0.0274,-0.024,-0.0214,-0.0284,-0.0255,-0.0256,-0.0256,0,0.015,0.0178,0.0258,0.0271,0.028,0.0319,0.0331,0.0358,0.0339,0.0329,0.0301,0.0239,0.0192,0.0119,-0.0004,0.002,-0.0082,-0.0161,-0.0167,-0.0217,-0.0281,-0.032,-0.029,-0.0261,-0.026,-0.026,-0.026,0,0.0225,0.0277,0.0336,0.0344,0.0366,0.0398,0.0413,0.0417,0.0449,0.0437,0.0456,0.0373,0.0349,0.0214,0.0042,0.0024,-0.0099,-0.0152,-0.0272,-0.0276,-0.0293,-0.0299,-0.0239,-0.0239,-0.0239,-0.0239,-0.0238,0,0.0307,0.0347,0.0378,0.041,0.0487,0.0482,0.0567,0.0566,0.0593,0.0661,0.0556,0.0578,0.0375,0.0269,0.0092,-0.0085,-0.0064,-0.0249,-0.029,-0.0262,-0.0263,-0.0276,-0.0279,-0.0242,-0.0241,-0.024,-0.024,0,0.0365,0.0385,0.0452,0.0502,0.0524,0.0584,0.0663,0.0726,0.0742,0.0826,0.0829,0.0736,0.0605,0.0387,0.0167,0.0,-0.0186,-0.026,-0.0216,-0.025,-0.0361,-0.0358,-0.0401,-0.0403,-0.0404,-0.0405,-0.0405,0,0.0395,0.0438,0.0524,0.0582,0.061,0.0696,0.0766,0.0799,0.0875,0.0932,0.098,0.0875,0.0819,0.0477,0.0162,-0.0143,-0.0185,-0.0318,-0.0357,-0.0338,-0.0374,-0.037,-0.0366,-0.0353,-0.0354,-0.0354,-0.0354,0,0.0439,0.0477,0.0535,0.0665,0.0753,0.0851,0.0956,0.1026,0.1096,0.1166,0.1226,0.1181,0.0872,0.0564,0.0146,-0.007,-0.0271,-0.0333,-0.0313,-0.0311,-0.0298,-0.0331,-0.0328,-0.0356,-0.0356,-0.0356,-0.0356,-0.0356,0.0457,0.0519,0.0616,0.0734,0.0853,0.0993,0.1087,0.1198,0.1318,0.1432,0.1394,0.1368,0.1008,0.048,0.01,-0.0289,-0.0281,-0.0418,-0.0415,-0.0413,-0.0387,-0.0375,-0.0444,-0.0445,-0.0445,-0.0445,-0.0445,0,0.0453,0.0545,0.0676,0.0823,0.0968,0.1032,0.1203,0.1297,0.1445,0.1564,0.1612,0.131,0.0953,0.0555,-0.0017,-0.0376,-0.0411,-0.0488,-0.0447,-0.0442,-0.0439,-0.0413,-0.0479,-0.048,-0.0481,-0.0482,0,0,0.045,0.0548,0.0634,0.0868,0.101,0.1202,0.1307,0.1445,0.1561,0.1659,0.168,0.1606,0.112,0.0704,0.0201,-0.0123,-0.02,-0.0199,-0.0135,-0.0023,-0.0014,-0.0365,-0.0317,0,0,0,0,0]}],[{"header":{"parameterUnit":"m.s-1","parameterCategory":2,"la1":30.2991,"la2":30.254,"lo1":-89.0895,"lo2":-89.0444,"dy":0.0017,"dx":0.0017,"nx":28,"ny":28,"refTime":"2024-06-20T21:00:00:Z","depth":"4","parameterNumber":2,"parameterNumberName":"U-component_of_CURRENTS"},"data":[0,0,0,0,0,0,0,0,0,0,0,0,0,0,0,0,0,0,0,0,0,0,0,0,0,0,0,0,0,0,0,0,0,0,0,0,0,0,0,0,0,0,0,0,0,0,0,0,0,0,0,0,0,0,0,0,0,0,0.1402,0.1403,0,0.1515,0.1516,0.1517,0.1581,0.1581,0.1582,0.1582,0.1699,0.1702,0.1704,0,0,0,0,0,0,0,0,0,0,0,0,0,0.1259,0.1261,0.1402,0.1404,0.1405,0.1515,0.1516,0.1517,0.158,0.1581,0.1582,0.1583,0.1698,0.1701,0.1704,0,0,0,0,0,0,0,0,0,0,0,0,0,0.1337,0.1261,0.1401,0.1454,0.146,0.1515,0.1516,0.1517,0.158,0.1581,0.1582,0.1583,0.1697,0.1701,0.1705,0.1709,0,0,0.1716,0.1718,0,0,0,0,0,0,0,0,0.1332,0.1341,0.1444,0.145,0.1457,0.1539,0.1509,0.1583,0.158,0.153,0.1582,0.1584,0.1648,0.1656,0.1669,0.1715,0.172,0.1717,0.1719,0.1721,0.1722,0,0,0,0,0,0,0,0.1327,0.1337,0.1442,0.1446,0.1454,0.1478,0.1489,0.1523,0.1579,0.1534,0.154,0.156,0.1651,0.1665,0.1672,0.1721,0.1717,0.172,0.1722,0.1724,0.1872,0.1874,0,0,0,0,0,0,0.132,0.1332,0.1438,0.1446,0.1401,0.148,0.1493,0.1508,0.1579,0.1592,0.1559,0.1562,0.1658,0.1667,0.1676,0.1784,0.1721,0.1724,0.1726,0.187,0.1872,0.1874,0,0,0,0,0,0,0.1317,0.1328,0.1434,0.1395,0.1411,0.1482,0.1498,0.151,0.156,0.1598,0.161,0.1602,0.1659,0.1671,0.1739,0.1785,0.1726,0.1729,0.1868,0.1871,0.1873,0.1937,0,0,0,0,0,0,0.1312,0.1326,0.135,0.1395,0.1413,0.1491,0.1498,0.1511,0.157,0.1577,0.1638,0.1648,0.1661,0.1733,0.1743,0.179,0.1732,0.1866,0.187,0.1872,0.1933,0.1941,0.1949,0,0,0,0,0,0.1306,0.1338,0.135,0.1364,0.1438,0.1493,0.1505,0.1555,0.1572,0.1601,0.1644,0.1648,0.176,0.1738,0.1749,0.1798,0.1865,0.1869,0.1872,0.1929,0.194,0.1948,0,0,0,0,0,0,0.1298,0.1349,0.1363,0.1411,0.1458,0.1506,0.1551,0.1573,0.1629,0.1648,0.1671,0.1684,0.1762,0.1767,0.1743,0.1848,0.1812,0.1819,0.1852,0.1862,0.187,0.188,0.1735,0,0,0,0,0,0.1303,0.1337,0.1386,0.1429,0.1457,0.1505,0.1541,0.1573,0.1622,0.1649,0.169,0.1734,0.1779,0.1811,0.1848,0.1906,0.1929,0.1943,0.1951,0.1958,0.1974,0.2038,0.2053,0.1886,0.1886,0.1886,0,0,0.1313,0.1347,0.1369,0.1429,0.1473,0.1523,0.153,0.1598,0.1645,0.1652,0.1739,0.1768,0.18,0.1869,0.1903,0.1885,0.202,0.1963,0.1969,0.1981,0.2044,0.206,0.2074,0.1889,0.1889,0.1888,0,0,0.1347,0.1382,0.1422,0.1462,0.1533,0.1563,0.1588,0.1653,0.1694,0.1767,0.1786,0.1842,0.1912,0.1943,0.1965,0.2038,0.206,0.2055,0.2109,0.2172,0.2186,0.2199,0.226,0.2278,0.2059,0.2059,0.2059,0,0.1358,0.1412,0.1445,0.1493,0.1537,0.1583,0.1637,0.1684,0.1763,0.1801,0.1808,0.1923,0.1947,0.2027,0.2055,0.2058,0.2101,0.207,0.2183,0.2196,0.2208,0.2268,0.2287,0.2063,0.2062,0.2062,0.2062,0,0.1412,0.1466,0.15,0.1568,0.1616,0.1676,0.1735,0.1792,0.1843,0.1884,0.1984,0.2019,0.2088,0.2103,0.2107,0.2207,0.2213,0.2186,0.2159,0.2229,0.2287,0.2306,0.2068,0.2067,0.2066,0.2065,0,0,0.1403,0.1514,0.1529,0.1572,0.1662,0.1704,0.1789,0.1871,0.1937,0.2008,0.2095,0.2165,0.2193,0.222,0.2235,0.2286,0.2406,0.2285,0.2286,0.2347,0.2565,0.2406,0.241,0.2409,0.2413,0.2415,0.2575,0,0.1439,0.1535,0.1583,0.1678,0.1731,0.1794,0.1864,0.1943,0.2017,0.2111,0.2164,0.2256,0.2236,0.2289,0.2338,0.2397,0.2458,0.2366,0.2487,0.2491,0.2341,0.2426,0.2426,0.2589,0.2593,0.2596,0.2599,0,0.147,0.1532,0.163,0.1732,0.1763,0.1828,0.1947,0.2018,0.2141,0.2202,0.2296,0.235,0.2459,0.2421,0.2564,0.2516,0.2556,0.2583,0.2589,0.243,0.2365,0.2502,0.2632,0.2629,0.2627,0.2625,0.2623,0,0.1437,0.1559,0.1639,0.1676,0.18,0.1862,0.1935,0.2053,0.2125,0.2282,0.236,0.2476,0.2567,0.2633,0.2699,0.2659,0.2842,0.2783,0.2676,0.2666,0.2733,0.2717,0.2884,0.2884,0.2883,0.2883,0.2882,0,0.1438,0.1503,0.1639,0.1681,0.1774,0.1865,0.1977,0.2063,0.22,0.2296,0.2415,0.2507,0.2631,0.2738,0.2764,0.2786,0.2901,0.271,0.2701,0.2757,0.2742,0.2747,0.2729,0.2889,0.2887,0.2886,0.2885,0,0.1385,0.1478,0.157,0.1713,0.1763,0.1831,0.1986,0.2059,0.2208,0.2344,0.2408,0.2583,0.272,0.2815,0.2943,0.2863,0.29,0.2876,0.2965,0.2954,0.2669,0.2653,0.2771,0.2767,0.2763,0.276,0.2758,0,0.1365,0.141,0.1571,0.1625,0.1699,0.1815,0.1887,0.2043,0.212,0.2365,0.2416,0.2621,0.272,0.2777,0.2875,0.2929,0.2883,0.2887,0.2737,0.2681,0.2661,0.265,0.2639,0.2752,0.2751,0.275,0.2749,0,0.1307,0.1377,0.1447,0.1565,0.1658,0.1746,0.187,0.1909,0.2099,0.2262,0.2381,0.2466,0.2614,0.2689,0.2761,0.2781,0.2871,0.2848,0.2854,0.2713,0.2659,0.2641,0.2634,0.2737,0.2739,0.274,0.2741,0,0.1253,0.1279,0.1381,0.1471,0.1583,0.1645,0.1724,0.1824,0.1917,0.2174,0.2217,0.2424,0.2597,0.2617,0.2681,0.2695,0.2636,0.253,0.2551,0.2566,0.2419,0.2316,0.2303,0,0,0,0,0,0.1182,0.1198,0.1278,0.1367,0.1479,0.1548,0.1694,0.1775,0.1961,0.1993,0.2095,0.2221,0.2328,0.2426,0.2398,0.2584,0.2641,0.2539,0.2527,0.2668,0.2683,0.2525,0,0,0,0,0,0,0.1129,0.1188,0.123,0.1265,0.131,0.1415,0.1502,0.1634,0.1652,0.1854,0.1919,0.2084,0.2212,0.2322,0.2354,0.2385,0.2332,0.2665,0.266,0.266,0.2673,0.2685,0.2528,0,0,0,0,0]},{"header":{"parameterUnit":"m.s-1","parameterCategory":2,"la1":30.2991,"la2":30.254,"lo1":-89.0895,"lo2":-89.0444,"dy":0.0017,"dx":0.0017,"nx":28,"ny":28,"refTime":"2024-06-20T21:00:00:Z","depth":"4","parameterNumber":3,"parameterNumberName":"V-component_of_CURRENTS"},"data":[0,0,0,0,0,0,0,0,0,0,0,0,0,0,0,0,0,0,0,0,0,0,0,0,0,0,0,0,0,0,0,0,0,0,0,0,0,0,0,0,0,0,0,0,0,0,0,0,0,0,0,0,0,0,0,0,0,0,0.0149,0.0148,0,0.0049,0.0048,0.0047,-0.0002,-0.0002,-0.0002,-0.0002,-0.0128,-0.0131,-0.0134,0,0,0,0,0,0,0,0,0,0,0,0,0,0.025,0.0249,0.0149,0.0148,0.0147,0.0049,0.0048,0.0047,-0.0002,-0.0002,-0.0002,-0.0002,-0.0126,-0.013,-0.0135,0,0,0,0,0,0,0,0,0,0,0,0,0,0.0184,0.0249,0.0149,0.0111,0.0107,0.005,0.0048,0.0046,-0.0002,-0.0002,-0.0002,-0.0002,-0.0125,-0.013,-0.0135,-0.0168,0,0,-0.0151,-0.0153,0,0,0,0,0,0,0,0,0.0188,0.018,0.0118,0.0113,0.0108,0.0037,0.0038,-0.0027,-0.0002,0.0038,-0.0002,-0.0002,-0.0075,-0.0084,-0.0103,-0.0174,-0.0179,-0.0151,-0.0154,-0.0156,-0.0158,0,0,0,0,0,0,0,0.0192,0.0184,0.0109,0.0116,0.0111,0.0083,0.0074,0.0025,-0.0018,0.0035,0.0031,0.0021,-0.0078,-0.0098,-0.0107,-0.0181,-0.0151,-0.0155,-0.0159,-0.0161,-0.0295,-0.0296,0,0,0,0,0,0,0.0208,0.0188,0.0112,0.0106,0.015,0.0081,0.0071,0.0059,-0.0017,-0.0029,0.0021,0.0019,-0.009,-0.0101,-0.0111,-0.0155,-0.0156,-0.0161,-0.0164,-0.0295,-0.0296,-0.0296,0,0,0,0,0,0,0.0211,0.0202,0.0116,0.0146,0.0133,0.008,0.0066,0.0057,0.0034,-0.0027,-0.0039,0.0008,-0.009,-0.0104,-0.0161,-0.016,-0.0163,-0.0168,-0.0294,-0.0295,-0.0296,-0.0243,0,0,0,0,0,0,0.0214,0.0204,0.0198,0.0147,0.0132,0.0076,0.0066,0.0055,0.0028,0.0025,-0.0043,-0.0054,-0.0091,-0.0153,-0.0166,-0.0168,-0.0172,-0.0294,-0.0295,-0.0296,-0.0244,-0.0242,-0.024,0,0,0,0,0,0.0218,0.0201,0.0198,0.0189,0.0127,0.0075,0.0064,0.0027,0.0028,0.0009,-0.0032,-0.0052,-0.0168,-0.0158,-0.0173,-0.0176,-0.0293,-0.0294,-0.0296,-0.0245,-0.0243,-0.024,0,0,0,0,0,0,0.0223,0.0193,0.0189,0.016,0.0123,0.0067,0.0046,0.0029,-0.0017,-0.002,-0.0067,-0.0082,-0.0133,-0.0164,-0.0152,-0.0218,-0.0231,-0.0235,-0.0188,-0.0186,-0.0184,-0.0159,-0.0176,0,0,0,0,0,0.0229,0.0218,0.0178,0.0153,0.014,0.0099,0.0075,0.005,0.0004,-0.0015,-0.006,-0.0106,-0.015,-0.0174,-0.0226,-0.0263,-0.0284,-0.0274,-0.0272,-0.027,-0.0261,-0.0289,-0.0288,-0.03,-0.03,-0.03,0,0,0.0224,0.0205,0.0198,0.0155,0.0127,0.0106,0.0083,0.0044,0.003,-0.0023,-0.0062,-0.0109,-0.0162,-0.0206,-0.0229,-0.023,-0.028,-0.0271,-0.0269,-0.0261,-0.029,-0.0289,-0.0287,-0.0301,-0.0301,-0.0301,0,0,0.0209,0.0194,0.0186,0.0162,0.0125,0.0101,0.0095,0.0043,0.0024,-0.0021,-0.0056,-0.01,-0.0172,-0.0205,-0.0228,-0.0247,-0.0274,-0.0263,-0.0227,-0.0254,-0.0253,-0.0252,-0.0281,-0.0283,-0.0254,-0.0254,-0.0254,0,0.0206,0.0195,0.017,0.0156,0.0146,0.0107,0.0099,0.0067,0.0002,-0.0005,-0.0029,-0.0118,-0.0168,-0.02,-0.0208,-0.024,-0.026,-0.0228,-0.0249,-0.0249,-0.0248,-0.0279,-0.0281,-0.0251,-0.0252,-0.0252,-0.0252,0,0.0189,0.0185,0.0174,0.0161,0.0141,0.0121,0.009,0.0068,0.0047,0.002,-0.0024,-0.0093,-0.0136,-0.0162,-0.0193,-0.0214,-0.023,-0.0246,-0.0247,-0.0243,-0.0276,-0.028,-0.0248,-0.0249,-0.025,-0.025,0,0,0.018,0.0171,0.0171,0.0184,0.015,0.0136,0.012,0.01,0.0108,0.0039,0.004,-0.0044,-0.007,-0.0099,-0.0143,-0.0171,-0.0197,-0.0201,-0.0204,-0.0216,-0.0256,-0.0261,-0.0266,-0.0212,-0.0212,-0.0213,-0.028,0,0.0183,0.0186,0.0175,0.0182,0.0188,0.0166,0.0162,0.0139,0.0116,0.01,0.004,0.0011,-0.0047,-0.006,-0.0099,-0.0173,-0.0204,-0.0177,-0.0271,-0.0273,-0.0266,-0.0269,-0.0214,-0.0283,-0.0284,-0.0285,-0.0286,0,0.0181,0.0191,0.021,0.023,0.0231,0.0231,0.0247,0.0234,0.0204,0.0187,0.015,0.0099,0.0044,-0.0003,-0.0115,-0.0093,-0.0168,-0.0228,-0.0232,-0.0254,-0.0284,-0.0291,-0.0293,-0.0292,-0.0292,-0.0291,-0.0291,0,0.0216,0.0221,0.0251,0.0253,0.0258,0.0275,0.028,0.0266,0.0281,0.025,0.0258,0.0174,0.0144,0.0039,-0.0092,-0.01,-0.0215,-0.0241,-0.0318,-0.0319,-0.0317,-0.0317,-0.0316,-0.0316,-0.0316,-0.0316,-0.0316,0,0.0235,0.0256,0.0277,0.0295,0.0339,0.0326,0.0373,0.0362,0.0368,0.0399,0.0314,0.0313,0.0155,0.0067,-0.0063,-0.0198,-0.0193,-0.031,-0.0334,-0.0296,-0.0293,-0.032,-0.032,-0.0318,-0.0318,-0.0317,-0.0317,0,0.026,0.0273,0.0312,0.0343,0.036,0.0393,0.0444,0.0477,0.0473,0.0513,0.051,0.0422,0.0302,0.0138,-0.0037,-0.0146,-0.0285,-0.0336,-0.0278,-0.0299,-0.038,-0.0377,-0.0424,-0.0425,-0.0425,-0.0426,-0.0426,0,0.0266,0.0291,0.0355,0.0395,0.0415,0.0469,0.0512,0.0529,0.0571,0.0582,0.0604,0.0505,0.0425,0.0186,-0.0009,-0.0253,-0.0294,-0.0366,-0.0383,-0.0371,-0.039,-0.0386,-0.0381,-0.0427,-0.0427,-0.0427,-0.0428,0,0.0271,0.0303,0.034,0.0434,0.0495,0.0569,0.0633,0.0673,0.0702,0.0708,0.0698,0.0567,0.0427,0.0205,0.0014,-0.0165,-0.032,-0.0373,-0.0373,-0.039,-0.0375,-0.0393,-0.0388,-0.043,-0.0429,-0.0429,-0.0429,0,0.0266,0.0301,0.0365,0.0451,0.0542,0.0638,0.0673,0.0727,0.0765,0.0781,0.0775,0.0619,0.0526,0.0251,0.0075,-0.0104,-0.016,-0.0219,-0.0229,-0.0229,-0.0163,-0.0115,-0.0105,0,0,0,0,0,0.0247,0.0294,0.0375,0.0476,0.0582,0.0644,0.0737,0.0769,0.0807,0.0821,0.0806,0.0679,0.042,0.0296,0.0119,0.0029,-0.0216,-0.0188,-0.0294,-0.044,-0.0438,-0.0396,0,0,0,0,0,0,0.0228,0.0295,0.036,0.0487,0.0572,0.0687,0.0756,0.0791,0.0797,0.0811,0.0676,0.0631,0.0368,0.0528,0.0116,0.0058,-0.0035,-0.0307,-0.0311,-0.0441,-0.0439,-0.0438,-0.0394,0,0,0,0,0]}]]